DELTA 1 DEB

Satellite information

Favourite Embed

Satellite Type and Status

DEBRISIN ORBIT

Key statistics

Satellite DELTA 1 DEB at a glance.

Uptime

17291

Days in orbit

Revolutions

≈ 14.4

Per day

Orbit

SSO

Sun Synchronous Orbit

Inclination

98.7

Latest

Satellite identification and parameters

Extended collection of information and parameters for DELTA 1 DEB.

Object identification

Identified? True

Debris? True

Object name: DELTA 1 DEB

International designator: 1978-026AU

Object number (NORAD): 12203

Object ID (CCSDS): 12203

Country: UNITED STATES OF AMERICA (US)

Current information (Y/N): Y

RCS size: MEDIUM

Orbital parameters

Period: 100.059 minutes

Inclination: 98.6543 deg

SMA: 7139.454 km

Apoapsis: 805.675 km

Periapsis: 716.963 km

RAAN: 205.2371 deg

Eccentricy: 0.0062128

Argument of periapsis: 139.4142 deg

Mean anomaly: 337.7291 deg

Mean motion: 14.39147497 rev/day

Mean motion (dot): 0.00000709 rev/day2

B* drag term: 0.00023836 1/REarth

Two-line elements (TLE)

Creation date: July 6, 2025, 6:05 p.m.

Reference frame: TEME

Reference center: EARTH

Epoch: July 6, 2025, 2:12 p.m. UTC

TLE line 0: 0 DELTA 1 DEB

TLE line 1: 1 12203U 78026AU 25187.59207264 .00000709 00000-0 23836-3 0 9990

TLE line 2: 2 12203 98.6543 205.2371 0062128 139.4142 337.7291 14.39147497314434

Live tracking on map

Real-time ground track for satellite DELTA 1 DEB.

In-orbit conjunctions

A list of the most updated potential collisions computed for object DELTA 1 DEB.

Target Orbit TCA Probability of collision Miss distance Type
COSMOS 2491 DEB * LEO 2025-06-15 20:49:41 0.000250752 99.0 (m) DEBRIS
COSMOS 2251 DEB LEO 2025-04-26 15:02:58 0.0001761064 235.0 (m) DEBRIS

Associated space launch

Earth observation satellite

DELTA 1 DEB was lifted into orbit during the mission ‘Delta 2910 | Landsat 3’, on board a Delta 2910 space rocket.

The launch took place on March 5, 1978, 5:54 p.m. from Space Launch Complex 2W.

For more information about the launch, click the button.

Launch to space Delta 2910 | Landsat 3
Delta 2910 | Landsat 3

Agency: N/A

Status: Launch Successful

Launch date: March 5, 1978, 5:54 p.m. UTC

Rocket: Delta 2910

Launch pad: Space Launch Complex 2W

Location: Vandenberg SFB, CA, USA

...

Latest news about this satellite

There are no fresh news available about this satellite. Check back as we update our databases every day.


Newsletter sign-up

Weekly statistics, charts and insights to help you stay on top of the space industry.